owner,sensor,date,latitude,longitude,vertical_datum,mass_concentration_of_oxygen_in_sea_water,qcFlag 
SCCF RECON,ioos:station:SCCF:53:1,2008-11-01T00:00:00Z,26.6493,-81.8810,2.2,8.1,1111122 
SCCF RECON,ioos:station:SCCF:53:1,2008-11-01T01:00:00Z,26.6493,-81.8810,2.207,8.15,1111122 
SCCF RECON,ioos:station:SCCF:53:1,2008-11-01T02:00:00Z,26.6493,-81.8810,2.2,7.8,1111122 
SCCF RECON,ioos:station:SCCF:53:1,2008-11-01T03:00:00Z,26.6493,-81.8810,2.19,8.05,1111122 
SCCF RECON,ioos:station:SCCF:53:1,2008-11-01T04:00:00Z,26.6493,-81.8810,2.19,7.97,1111122 
SCCF RECON,ioos:station:SCCF:53:1,2008-11-01T05:00:00Z,26.6493,-81.8810,2.22,8.01,1111122 
SCCF RECON,ioos:station:SCCF:53:1,2008-11-01T06:00:00Z,26.6493,-81.8810,2.27,8.03,1111122 
SCCF RECON,ioos:station:SCCF:53:1,2008-11-01T07:00:00Z,26.6493,-81.8810,2.32,8.14,1111122 
SCCF RECON,ioos:station:SCCF:53:1,2008-11-01T08:00:00Z,26.6493,-81.8810,2.356,8.14,1111122 
SCCF RECON,ioos:station:SCCF:53:1,2008-11-01T09:00:00Z,26.6493,-81.8810,2.36,7.85,1111122 
SCCF RECON,ioos:station:SCCF:53:1,2008-11-01T10:00:00Z,26.6493,-81.8810,2.321,7.84,1111122 
SCCF RECON,ioos:station:SCCF:53:1,2008-11-01T11:00:00Z,26.6493,-81.8810,2.27,7.83,1111122 
SCCF RECON,ioos:station:SCCF:53:1,2008-11-01T12:00:00Z,26.6493,-81.8810,2.215,7.66,1111122 
SCCF RECON,ioos:station:SCCF:53:1,2008-11-01T13:00:00Z,26.6493,-81.8810,2.159,7.98,1111122 
SCCF RECON,ioos:station:SCCF:53:1,2008-11-01T14:00:00Z,26.6493,-81.8810,2.11,8.08,1111122 
SCCF RECON,ioos:station:SCCF:53:1,2008-11-01T15:00:00Z,26.6493,-81.8810,2.05,8.03,1111122 
SCCF RECON,ioos:station:SCCF:53:1,2008-11-01T16:00:00Z,26.6493,-81.8810,1.991,8.02,1111122 
SCCF RECON,ioos:station:SCCF:53:1,2008-11-01T17:00:00Z,26.6493,-81.8810,1.941,7.87,1111122 
SCCF RECON,ioos:station:SCCF:53:1,2008-11-01T18:00:00Z,26.6493,-81.8810,1.907,8.22,1111122 
SCCF RECON,ioos:station:SCCF:53:1,2008-11-01T19:00:00Z,26.6493,-81.8810,1.939,8.07,1111122 
SCCF RECON,ioos:station:SCCF:53:1,2008-11-01T20:00:00Z,26.6493,-81.8810,1.98,8.25,1111122 
SCCF RECON,ioos:station:SCCF:53:1,2008-11-01T21:00:00Z,26.6493,-81.8810,2.02,8.31,1111122 
SCCF RECON,ioos:station:SCCF:53:1,2008-11-01T22:00:00Z,26.6493,-81.8810,2.078,8.15,1111122 
SCCF RECON,ioos:station:SCCF:53:1,2008-11-01T23:00:00Z,26.6493,-81.8810,2.125,7.97,1111122 
SCCF RECON,ioos:station:SCCF:53:1,2008-11-02T00:00:00Z,26.6493,-81.8810,2.18,8.05,1111122 
SCCF RECON,ioos:station:SCCF:53:1,2008-11-02T01:00:00Z,26.6493,-81.8810,2.208,8.16,1111122 
SCCF RECON,ioos:station:SCCF:53:1,2008-11-02T02:00:00Z,26.6493,-81.8810,2.23,8.18,1111122 
SCCF RECON,ioos:station:SCCF:53:1,2008-11-02T03:00:00Z,26.6493,-81.8810,2.256,8.2,1111122 
SCCF RECON,ioos:station:SCCF:53:1,2008-11-02T04:00:00Z,26.6493,-81.8810,2.289,8.15,1111122 
SCCF RECON,ioos:station:SCCF:53:1,2008-11-02T05:00:00Z,26.6493,-81.8810,2.33,8.08,1111122 
SCCF RECON,ioos:station:SCCF:53:1,2008-11-02T06:00:00Z,26.6493,-81.8810,2.38,8.13,1111122 
SCCF RECON,ioos:station:SCCF:53:1,2008-11-02T07:00:00Z,26.6493,-81.8810,2.43,8.22,1111122 
SCCF RECON,ioos:station:SCCF:53:1,2008-11-02T08:00:00Z,26.6493,-81.8810,2.47,8.16,1111122 
SCCF RECON,ioos:station:SCCF:53:1,2008-11-02T09:00:00Z,26.6493,-81.8810,2.5,8.26,1111122 
SCCF RECON,ioos:station:SCCF:53:1,2008-11-02T10:00:00Z,26.6493,-81.8810,2.51,8.32,1111122 
SCCF RECON,ioos:station:SCCF:53:1,2008-11-02T11:00:00Z,26.6493,-81.8810,2.46,7.67,1111122 
SCCF RECON,ioos:station:SCCF:53:1,2008-11-02T12:00:00Z,26.6493,-81.8810,2.4,7.83,1111122 
SCCF RECON,ioos:station:SCCF:53:1,2008-11-02T13:00:00Z,26.6493,-81.8810,2.342,7.78,1111122 
SCCF RECON,ioos:station:SCCF:53:1,2008-11-02T14:00:00Z,26.6493,-81.8810,2.281,7.94,1111122 
SCCF RECON,ioos:station:SCCF:53:1,2008-11-02T15:00:00Z,26.6493,-81.8810,2.22,8.05,1111122 
SCCF RECON,ioos:station:SCCF:53:1,2008-11-02T16:00:00Z,26.6493,-81.8810,2.16,8.1,1111122 
SCCF RECON,ioos:station:SCCF:53:1,2008-11-02T17:00:00Z,26.6493,-81.8810,2.103,8.18,1111122 
SCCF RECON,ioos:station:SCCF:53:1,2008-11-02T18:00:00Z,26.6493,-81.8810,2.054,8.08,1111122 
SCCF RECON,ioos:station:SCCF:53:1,2008-11-02T19:00:00Z,26.6493,-81.8810,2.047,8.11,1111122 
SCCF RECON,ioos:station:SCCF:53:1,2008-11-02T20:00:00Z,26.6493,-81.8810,2.087,8.17,1111122 
SCCF RECON,ioos:station:SCCF:53:1,2008-11-02T21:00:00Z,26.6493,-81.8810,2.13,8.27,1111122 
SCCF RECON,ioos:station:SCCF:53:1,2008-11-02T22:00:00Z,26.6493,-81.8810,2.184,8.17,1111122 
SCCF RECON,ioos:station:SCCF:53:1,2008-11-02T23:00:00Z,26.6493,-81.8810,2.231,8.0,1111122 
SCCF RECON,ioos:station:SCCF:53:1,2008-11-03T00:00:00Z,26.6493,-81.8810,2.28,7.92,1111122 
SCCF RECON,ioos:station:SCCF:53:1,2008-11-03T01:00:00Z,26.6493,-81.8810,2.3,8.11,1111122 
SCCF RECON,ioos:station:SCCF:53:1,2008-11-03T02:00:00Z,26.6493,-81.8810,2.305,8.01,1111122 
SCCF RECON,ioos:station:SCCF:53:1,2008-11-03T03:00:00Z,26.6493,-81.8810,2.29,7.96,1111122 
SCCF RECON,ioos:station:SCCF:53:1,2008-11-03T04:00:00Z,26.6493,-81.8810,2.279,7.96,1111122 
SCCF RECON,ioos:station:SCCF:53:1,2008-11-03T05:00:00Z,26.6493,-81.8810,2.277,8.09,1111122 
SCCF RECON,ioos:station:SCCF:53:1,2008-11-03T06:00:00Z,26.6493,-81.8810,2.298,8.11,1111122 
SCCF RECON,ioos:station:SCCF:53:1,2008-11-03T07:00:00Z,26.6493,-81.8810,2.34,8.08,1111122 
SCCF RECON,ioos:station:SCCF:53:1,2008-11-03T08:00:00Z,26.6493,-81.8810,2.39,8.02,1111122 
SCCF RECON,ioos:station:SCCF:53:1,2008-11-03T09:00:00Z,26.6493,-81.8810,2.43,7.88,1111122 
SCCF RECON,ioos:station:SCCF:53:1,2008-11-03T10:00:00Z,26.6493,-81.8810,2.45,7.6,1111122 
SCCF RECON,ioos:station:SCCF:53:1,2008-11-03T11:00:00Z,26.6493,-81.8810,2.428,7.66,1111122 
SCCF RECON,ioos:station:SCCF:53:1,2008-11-03T12:00:00Z,26.6493,-81.8810,2.37,7.53,1111122 
SCCF RECON,ioos:station:SCCF:53:1,2008-11-03T13:00:00Z,26.6493,-81.8810,2.31,7.47,1111122 
SCCF RECON,ioos:station:SCCF:53:1,2008-11-03T14:00:00Z,26.6493,-81.8810,2.257,7.8,1111122 
SCCF RECON,ioos:station:SCCF:53:1,2008-11-03T15:00:00Z,26.6493,-81.8810,2.192,7.8,1111122 
SCCF RECON,ioos:station:SCCF:53:1,2008-11-03T16:00:00Z,26.6493,-81.8810,2.136,7.53,1111122 
SCCF RECON,ioos:station:SCCF:53:1,2008-11-03T17:00:00Z,26.6493,-81.8810,2.076,7.59,1111122 
SCCF RECON,ioos:station:SCCF:53:1,2008-11-03T18:00:00Z,26.6493,-81.8810,2.02,7.59,1111122 
SCCF RECON,ioos:station:SCCF:53:1,2008-11-03T19:00:00Z,26.6493,-81.8810,1.99,7.67,1111122 
SCCF RECON,ioos:station:SCCF:53:1,2008-11-03T20:00:00Z,26.6493,-81.8810,2.01,7.8,1111122 
SCCF RECON,ioos:station:SCCF:53:1,2008-11-03T21:00:00Z,26.6493,-81.8810,2.063,7.9,1111122 
SCCF RECON,ioos:station:SCCF:53:1,2008-11-03T22:00:00Z,26.6493,-81.8810,2.114,7.84,1111122 
SCCF RECON,ioos:station:SCCF:53:1,2008-11-03T23:00:00Z,26.6493,-81.8810,2.17,7.7,1111122 
SCCF RECON,ioos:station:SCCF:53:1,2008-11-04T00:00:00Z,26.6493,-81.8810,2.23,7.63,1111122 
SCCF RECON,ioos:station:SCCF:53:1,2008-11-04T01:00:00Z,26.6493,-81.8810,2.27,7.36,1111122 
SCCF RECON,ioos:station:SCCF:53:1,2008-11-04T02:00:00Z,26.6493,-81.8810,2.29,7.75,1111122 
SCCF RECON,ioos:station:SCCF:53:1,2008-11-04T03:00:00Z,26.6493,-81.8810,2.3,7.58,1111122 
SCCF RECON,ioos:station:SCCF:53:1,2008-11-04T04:00:00Z,26.6493,-81.8810,2.3,7.67,1111122 
SCCF RECON,ioos:station:SCCF:53:1,2008-11-04T05:00:00Z,26.6493,-81.8810,2.29,7.56,1111122 
SCCF RECON,ioos:station:SCCF:53:1,2008-11-04T06:00:00Z,26.6493,-81.8810,2.289,7.78,1111122 
SCCF RECON,ioos:station:SCCF:53:1,2008-11-04T07:00:00Z,26.6493,-81.8810,2.29,7.62,1111122 
SCCF RECON,ioos:station:SCCF:53:1,2008-11-04T08:00:00Z,26.6493,-81.8810,2.3,7.79,1111122 
SCCF RECON,ioos:station:SCCF:53:1,2008-11-04T09:00:00Z,26.6493,-81.8810,2.327,7.92,1111122 
SCCF RECON,ioos:station:SCCF:53:1,2008-11-04T10:00:00Z,26.6493,-81.8810,2.33,7.36,1111122 
SCCF RECON,ioos:station:SCCF:53:1,2008-11-04T11:00:00Z,26.6493,-81.8810,2.34,7.13,1111122 
SCCF RECON,ioos:station:SCCF:53:1,2008-11-04T12:00:00Z,26.6493,-81.8810,2.32,6.86,1111122 
SCCF RECON,ioos:station:SCCF:53:1,2008-11-04T13:00:00Z,26.6493,-81.8810,2.27,6.88,1111122 
SCCF RECON,ioos:station:SCCF:53:1,2008-11-04T14:00:00Z,26.6493,-81.8810,2.22,7.0,1111122 
SCCF RECON,ioos:station:SCCF:53:1,2008-11-04T15:00:00Z,26.6493,-81.8810,2.17,7.36,1111122 
SCCF RECON,ioos:station:SCCF:53:1,2008-11-04T16:00:00Z,26.6493,-81.8810,2.12,7.36,1111122 
SCCF RECON,ioos:station:SCCF:53:1,2008-11-04T17:00:00Z,26.6493,-81.8810,2.061,7.17,1111122 
SCCF RECON,ioos:station:SCCF:53:1,2008-11-04T18:00:00Z,26.6493,-81.8810,2.004,7.16,1111122 
SCCF RECON,ioos:station:SCCF:53:1,2008-11-04T19:00:00Z,26.6493,-81.8810,1.96,7.33,1111122 
SCCF RECON,ioos:station:SCCF:53:1,2008-11-04T20:00:00Z,26.6493,-81.8810,1.94,7.46,1111122 
SCCF RECON,ioos:station:SCCF:53:1,2008-11-04T21:00:00Z,26.6493,-81.8810,1.952,7.64,1111122 
SCCF RECON,ioos:station:SCCF:53:1,2008-11-04T22:00:00Z,26.6493,-81.8810,2.01,7.51,1111122 
SCCF RECON,ioos:station:SCCF:53:1,2008-11-04T23:00:00Z,26.6493,-81.8810,2.061,7.31,1111122 
SCCF RECON,ioos:station:SCCF:53:1,2008-11-05T00:00:00Z,26.6493,-81.8810,2.12,7.41,1111122 
SCCF RECON,ioos:station:SCCF:53:1,2008-11-05T01:00:00Z,26.6493,-81.8810,2.175,7.43,1111122 
SCCF RECON,ioos:station:SCCF:53:1,2008-11-05T02:00:00Z,26.6493,-81.8810,2.217,7.41,1111122 
SCCF RECON,ioos:station:SCCF:53:1,2008-11-05T03:00:00Z,26.6493,-81.8810,2.24,7.8,1111122 
SCCF RECON,ioos:station:SCCF:53:1,2008-11-05T04:00:00Z,26.6493,-81.8810,2.24,7.39,1111122 
SCCF RECON,ioos:station:SCCF:53:1,2008-11-05T05:00:00Z,26.6493,-81.8810,2.239,7.29,1111122 
SCCF RECON,ioos:station:SCCF:53:1,2008-11-05T06:00:00Z,26.6493,-81.8810,2.24,7.25,1111122 
SCCF RECON,ioos:station:SCCF:53:1,2008-11-05T07:00:00Z,26.6493,-81.8810,2.25,7.47,1111122 
SCCF RECON,ioos:station:SCCF:53:1,2008-11-05T08:00:00Z,26.6493,-81.8810,2.28,7.38,1111122 
SCCF RECON,ioos:station:SCCF:53:1,2008-11-05T09:00:00Z,26.6493,-81.8810,2.32,7.8,1111122 
SCCF RECON,ioos:station:SCCF:53:1,2008-11-05T10:00:00Z,26.6493,-81.8810,2.36,7.79,1111122 
SCCF RECON,ioos:station:SCCF:53:1,2008-11-05T11:00:00Z,26.6493,-81.8810,2.39,7.29,1111122 
SCCF RECON,ioos:station:SCCF:53:1,2008-11-05T12:00:00Z,26.6493,-81.8810,2.406,7.13,1111122 
SCCF RECON,ioos:station:SCCF:53:1,2008-11-05T13:00:00Z,26.6493,-81.8810,2.38,6.96,1111122 
SCCF RECON,ioos:station:SCCF:53:1,2008-11-05T14:00:00Z,26.6493,-81.8810,2.336,7.09,1111122 
SCCF RECON,ioos:station:SCCF:53:1,2008-11-05T15:00:00Z,26.6493,-81.8810,2.279,7.08,1111122 
SCCF RECON,ioos:station:SCCF:53:1,2008-11-05T16:00:00Z,26.6493,-81.8810,2.22,6.79,1111122 
SCCF RECON,ioos:station:SCCF:53:1,2008-11-05T17:00:00Z,26.6493,-81.8810,2.16,7.02,1111122 
SCCF RECON,ioos:station:SCCF:53:1,2008-11-05T18:00:00Z,26.6493,-81.8810,2.1,7.19,1111122 
SCCF RECON,ioos:station:SCCF:53:1,2008-11-05T19:00:00Z,26.6493,-81.8810,2.049,7.01,1111122 
SCCF RECON,ioos:station:SCCF:53:1,2008-11-05T20:00:00Z,26.6493,-81.8810,2.01,7.44,1111122 
SCCF RECON,ioos:station:SCCF:53:1,2008-11-05T21:00:00Z,26.6493,-81.8810,1.99,7.69,1111122 
SCCF RECON,ioos:station:SCCF:53:1,2008-11-05T22:00:00Z,26.6493,-81.8810,2.005,7.77,1111122 
SCCF RECON,ioos:station:SCCF:53:1,2008-11-05T23:00:00Z,26.6493,-81.8810,2.05,7.97,1111122 
SCCF RECON,ioos:station:SCCF:53:1,2008-11-06T00:00:00Z,26.6493,-81.8810,2.102,8.13,1111122 
SCCF RECON,ioos:station:SCCF:53:1,2008-11-06T01:00:00Z,26.6493,-81.8810,2.16,7.77,1111122 
SCCF RECON,ioos:station:SCCF:53:1,2008-11-06T02:00:00Z,26.6493,-81.8810,2.208,7.56,1111122 
SCCF RECON,ioos:station:SCCF:53:1,2008-11-06T03:00:00Z,26.6493,-81.8810,2.249,7.62,1111122 
SCCF RECON,ioos:station:SCCF:53:1,2008-11-06T04:00:00Z,26.6493,-81.8810,2.27,7.54,1111122 
SCCF RECON,ioos:station:SCCF:53:1,2008-11-06T05:00:00Z,26.6493,-81.8810,2.28,7.28,1111122 
SCCF RECON,ioos:station:SCCF:53:1,2008-11-06T06:00:00Z,26.6493,-81.8810,2.27,7.26,1111122 
SCCF RECON,ioos:station:SCCF:53:1,2008-11-06T07:00:00Z,26.6493,-81.8810,2.25,7.46,1111122 
SCCF RECON,ioos:station:SCCF:53:1,2008-11-06T08:00:00Z,26.6493,-81.8810,2.23,7.06,1111122 
SCCF RECON,ioos:station:SCCF:53:1,2008-11-06T09:00:00Z,26.6493,-81.8810,2.24,7.73,1111122 
SCCF RECON,ioos:station:SCCF:53:1,2008-11-06T10:00:00Z,26.6493,-81.8810,2.28,8.35,1111122 
SCCF RECON,ioos:station:SCCF:53:1,2008-11-06T11:00:00Z,26.6493,-81.8810,2.32,8.1,1111122 
SCCF RECON,ioos:station:SCCF:53:1,2008-11-06T12:00:00Z,26.6493,-81.8810,2.36,7.55,1111122 
SCCF RECON,ioos:station:SCCF:53:1,2008-11-06T13:00:00Z,26.6493,-81.8810,2.4,7.42,1111122 
SCCF RECON,ioos:station:SCCF:53:1,2008-11-06T14:00:00Z,26.6493,-81.8810,2.409,7.49,1111122 
SCCF RECON,ioos:station:SCCF:53:1,2008-11-06T15:00:00Z,26.6493,-81.8810,2.368,7.19,1111122 
SCCF RECON,ioos:station:SCCF:53:1,2008-11-06T16:00:00Z,26.6493,-81.8810,2.307,7.34,1111122 
SCCF RECON,ioos:station:SCCF:53:1,2008-11-06T17:00:00Z,26.6493,-81.8810,2.25,7.35,1111122 
SCCF RECON,ioos:station:SCCF:53:1,2008-11-06T18:00:00Z,26.6493,-81.8810,2.19,7.76,1111122 
SCCF RECON,ioos:station:SCCF:53:1,2008-11-06T19:00:00Z,26.6493,-81.8810,2.14,7.65,1111122 
SCCF RECON,ioos:station:SCCF:53:1,2008-11-06T20:00:00Z,26.6493,-81.8810,2.094,7.59,1111122 
SCCF RECON,ioos:station:SCCF:53:1,2008-11-06T21:00:00Z,26.6493,-81.8810,2.059,7.5,1111122 
SCCF RECON,ioos:station:SCCF:53:1,2008-11-06T22:00:00Z,26.6493,-81.8810,2.05,7.87,1111122 
SCCF RECON,ioos:station:SCCF:53:1,2008-11-06T23:00:00Z,26.6493,-81.8810,2.1,9.24,1111122 
SCCF RECON,ioos:station:SCCF:53:1,2008-11-07T00:00:00Z,26.6493,-81.8810,2.16,9.97,1111122 
SCCF RECON,ioos:station:SCCF:53:1,2008-11-07T01:00:00Z,26.6493,-81.8810,2.21,8.27,1111122 
SCCF RECON,ioos:station:SCCF:53:1,2008-11-07T02:00:00Z,26.6493,-81.8810,2.27,7.43,1111122 
SCCF RECON,ioos:station:SCCF:53:1,2008-11-07T03:00:00Z,26.6493,-81.8810,2.31,7.37,1111122 
SCCF RECON,ioos:station:SCCF:53:1,2008-11-07T04:00:00Z,26.6493,-81.8810,2.34,7.74,1111122 
SCCF RECON,ioos:station:SCCF:53:1,2008-11-07T05:00:00Z,26.6493,-81.8810,2.34,7.53,1111122 
SCCF RECON,ioos:station:SCCF:53:1,2008-11-07T06:00:00Z,26.6493,-81.8810,2.3,7.17,1111122 
SCCF RECON,ioos:station:SCCF:53:1,2008-11-07T07:00:00Z,26.6493,-81.8810,2.257,7.34,1111122 
SCCF RECON,ioos:station:SCCF:53:1,2008-11-07T08:00:00Z,26.6493,-81.8810,2.2,7.15,1111122 
SCCF RECON,ioos:station:SCCF:53:1,2008-11-07T09:00:00Z,26.6493,-81.8810,2.16,7.39,1111122 
SCCF RECON,ioos:station:SCCF:53:1,2008-11-07T10:00:00Z,26.6493,-81.8810,2.16,8.06,1111122 
SCCF RECON,ioos:station:SCCF:53:1,2008-11-07T11:00:00Z,26.6493,-81.8810,2.19,7.98,1111122 
SCCF RECON,ioos:station:SCCF:53:1,2008-11-07T12:00:00Z,26.6493,-81.8810,2.246,7.81,1111122 
SCCF RECON,ioos:station:SCCF:53:1,2008-11-07T13:00:00Z,26.6493,-81.8810,2.3,8.66,1111122 
SCCF RECON,ioos:station:SCCF:53:1,2008-11-07T14:00:00Z,26.6493,-81.8810,2.34,7.76,1111122 
SCCF RECON,ioos:station:SCCF:53:1,2008-11-07T15:00:00Z,26.6493,-81.8810,2.352,7.85,1111122 
SCCF RECON,ioos:station:SCCF:53:1,2008-11-07T16:00:00Z,26.6493,-81.8810,2.329,7.59,1111122 
SCCF RECON,ioos:station:SCCF:53:1,2008-11-07T17:00:00Z,26.6493,-81.8810,2.27,7.82,1111122 
SCCF RECON,ioos:station:SCCF:53:1,2008-11-07T18:00:00Z,26.6493,-81.8810,2.21,7.94,1111122 
SCCF RECON,ioos:station:SCCF:53:1,2008-11-07T19:00:00Z,26.6493,-81.8810,2.16,7.52,1111122 
SCCF RECON,ioos:station:SCCF:53:1,2008-11-07T20:00:00Z,26.6493,-81.8810,2.109,7.62,1111122 
SCCF RECON,ioos:station:SCCF:53:1,2008-11-07T21:00:00Z,26.6493,-81.8810,2.063,7.57,1111122 
SCCF RECON,ioos:station:SCCF:53:1,2008-11-07T22:00:00Z,26.6493,-81.8810,2.041,7.76,1111122 
SCCF RECON,ioos:station:SCCF:53:1,2008-11-07T23:00:00Z,26.6493,-81.8810,2.063,8.73,1111122 
SCCF RECON,ioos:station:SCCF:53:1,2008-11-08T00:00:00Z,26.6493,-81.8810,2.12,9.92,1111122 
SCCF RECON,ioos:station:SCCF:53:1,2008-11-08T01:00:00Z,26.6493,-81.8810,2.17,9.53,1111122 
SCCF RECON,ioos:station:SCCF:53:1,2008-11-08T02:00:00Z,26.6493,-81.8810,2.24,8.67,1111122 
SCCF RECON,ioos:station:SCCF:53:1,2008-11-08T03:00:00Z,26.6493,-81.8810,2.29,7.72,1111122 
SCCF RECON,ioos:station:SCCF:53:1,2008-11-08T04:00:00Z,26.6493,-81.8810,2.34,7.51,1111122 
SCCF RECON,ioos:station:SCCF:53:1,2008-11-08T05:00:00Z,26.6493,-81.8810,2.356,7.73,1111122 
SCCF RECON,ioos:station:SCCF:53:1,2008-11-08T06:00:00Z,26.6493,-81.8810,2.33,7.31,1111122 
SCCF RECON,ioos:station:SCCF:53:1,2008-11-08T07:00:00Z,26.6493,-81.8810,2.28,7.71,1111122 
SCCF RECON,ioos:station:SCCF:53:1,2008-11-08T08:00:00Z,26.6493,-81.8810,2.22,7.86,1111122 
SCCF RECON,ioos:station:SCCF:53:1,2008-11-08T09:00:00Z,26.6493,-81.8810,2.17,7.76,1111122 
SCCF RECON,ioos:station:SCCF:53:1,2008-11-08T10:00:00Z,26.6493,-81.8810,2.13,7.62,1111122 
SCCF RECON,ioos:station:SCCF:53:1,2008-11-08T11:00:00Z,26.6493,-81.8810,2.1,7.85,1111122 
SCCF RECON,ioos:station:SCCF:53:1,2008-11-08T12:00:00Z,26.6493,-81.8810,2.143,8.16,1111122 
SCCF RECON,ioos:station:SCCF:53:1,2008-11-08T13:00:00Z,26.6493,-81.8810,2.201,9.03,1111122 
SCCF RECON,ioos:station:SCCF:53:1,2008-11-08T14:00:00Z,26.6493,-81.8810,2.255,8.97,1111122 
SCCF RECON,ioos:station:SCCF:53:1,2008-11-08T15:00:00Z,26.6493,-81.8810,2.303,8.16,1111122 
SCCF RECON,ioos:station:SCCF:53:1,2008-11-08T16:00:00Z,26.6493,-81.8810,2.33,7.62,1111122 
SCCF RECON,ioos:station:SCCF:53:1,2008-11-08T17:00:00Z,26.6493,-81.8810,2.315,7.79,1111122 
SCCF RECON,ioos:station:SCCF:53:1,2008-11-08T18:00:00Z,26.6493,-81.8810,2.271,7.82,1111122 
SCCF RECON,ioos:station:SCCF:53:1,2008-11-08T19:00:00Z,26.6493,-81.8810,2.211,8.23,1111122 
SCCF RECON,ioos:station:SCCF:53:1,2008-11-08T20:00:00Z,26.6493,-81.8810,2.158,8.1,1111122 
SCCF RECON,ioos:station:SCCF:53:1,2008-11-08T21:00:00Z,26.6493,-81.8810,2.119,8.17,1111122 
SCCF RECON,ioos:station:SCCF:53:1,2008-11-08T22:00:00Z,26.6493,-81.8810,2.07,8.09,1111122 
SCCF RECON,ioos:station:SCCF:53:1,2008-11-08T23:00:00Z,26.6493,-81.8810,2.048,7.98,1111122 
SCCF RECON,ioos:station:SCCF:53:1,2008-11-09T00:00:00Z,26.6493,-81.8810,2.06,7.89,1111122 
SCCF RECON,ioos:station:SCCF:53:1,2008-11-09T01:00:00Z,26.6493,-81.8810,2.12,8.23,1111122 
SCCF RECON,ioos:station:SCCF:53:1,2008-11-09T02:00:00Z,26.6493,-81.8810,2.19,8.15,1111122 
SCCF RECON,ioos:station:SCCF:53:1,2008-11-09T03:00:00Z,26.6493,-81.8810,2.25,7.47,1111122 
SCCF RECON,ioos:station:SCCF:53:1,2008-11-09T04:00:00Z,26.6493,-81.8810,2.32,7.76,1111122 
SCCF RECON,ioos:station:SCCF:53:1,2008-11-09T05:00:00Z,26.6493,-81.8810,2.36,7.36,1111122 
SCCF RECON,ioos:station:SCCF:53:1,2008-11-09T06:00:00Z,26.6493,-81.8810,2.36,7.12,1111122 
SCCF RECON,ioos:station:SCCF:53:1,2008-11-09T07:00:00Z,26.6493,-81.8810,2.3,7.45,1111122 
SCCF RECON,ioos:station:SCCF:53:1,2008-11-09T08:00:00Z,26.6493,-81.8810,2.25,8.1,1111122 
SCCF RECON,ioos:station:SCCF:53:1,2008-11-09T09:00:00Z,26.6493,-81.8810,2.19,7.48,1111122 
SCCF RECON,ioos:station:SCCF:53:1,2008-11-09T10:00:00Z,26.6493,-81.8810,2.13,7.55,1111122 
SCCF RECON,ioos:station:SCCF:53:1,2008-11-09T11:00:00Z,26.6493,-81.8810,2.09,7.29,1111122 
SCCF RECON,ioos:station:SCCF:53:1,2008-11-09T12:00:00Z,26.6493,-81.8810,2.07,7.77,1111122 
SCCF RECON,ioos:station:SCCF:53:1,2008-11-09T13:00:00Z,26.6493,-81.8810,2.07,8.11,1111122 
SCCF RECON,ioos:station:SCCF:53:1,2008-11-09T14:00:00Z,26.6493,-81.8810,2.129,8.27,1111122 
SCCF RECON,ioos:station:SCCF:53:1,2008-11-09T15:00:00Z,26.6493,-81.8810,2.171,8.19,1111122 
SCCF RECON,ioos:station:SCCF:53:1,2008-11-09T16:00:00Z,26.6493,-81.8810,2.209,8.14,1111122 
SCCF RECON,ioos:station:SCCF:53:1,2008-11-09T17:00:00Z,26.6493,-81.8810,2.244,8.7,1111122 
SCCF RECON,ioos:station:SCCF:53:1,2008-11-09T18:00:00Z,26.6493,-81.8810,2.242,7.92,1111122 
SCCF RECON,ioos:station:SCCF:53:1,2008-11-09T19:00:00Z,26.6493,-81.8810,2.203,7.61,1111122 
SCCF RECON,ioos:station:SCCF:53:1,2008-11-09T20:00:00Z,26.6493,-81.8810,2.147,7.9,1111122 
SCCF RECON,ioos:station:SCCF:53:1,2008-11-09T21:00:00Z,26.6493,-81.8810,2.1,7.68,1111122 
SCCF RECON,ioos:station:SCCF:53:1,2008-11-09T22:00:00Z,26.6493,-81.8810,2.057,7.97,1111122 
SCCF RECON,ioos:station:SCCF:53:1,2008-11-09T23:00:00Z,26.6493,-81.8810,2.025,7.96,1111122 
SCCF RECON,ioos:station:SCCF:53:1,2008-11-10T00:00:00Z,26.6493,-81.8810,2.023,8.07,1111122 
SCCF RECON,ioos:station:SCCF:53:1,2008-11-10T01:00:00Z,26.6493,-81.8810,2.07,8.65,1111122 
SCCF RECON,ioos:station:SCCF:53:1,2008-11-10T02:00:00Z,26.6493,-81.8810,2.13,9.53,1111122 
SCCF RECON,ioos:station:SCCF:53:1,2008-11-10T03:00:00Z,26.6493,-81.8810,2.18,9.83,1111122 
SCCF RECON,ioos:station:SCCF:53:1,2008-11-10T04:00:00Z,26.6493,-81.8810,2.24,8.99,1111122 
SCCF RECON,ioos:station:SCCF:53:1,2008-11-10T05:00:00Z,26.6493,-81.8810,2.29,8.92,1111122 
SCCF RECON,ioos:station:SCCF:53:1,2008-11-10T06:00:00Z,26.6493,-81.8810,2.31,9.22,1111122 
SCCF RECON,ioos:station:SCCF:53:1,2008-11-10T07:00:00Z,26.6493,-81.8810,2.26,8.1,1111122 
SCCF RECON,ioos:station:SCCF:53:1,2008-11-10T08:00:00Z,26.6493,-81.8810,2.2,9.47,1111122 
SCCF RECON,ioos:station:SCCF:53:1,2008-11-10T09:00:00Z,26.6493,-81.8810,2.149,7.79,1111122 
SCCF RECON,ioos:station:SCCF:53:1,2008-11-10T10:00:00Z,26.6493,-81.8810,2.09,7.97,1111122 
SCCF RECON,ioos:station:SCCF:53:1,2008-11-10T11:00:00Z,26.6493,-81.8810,2.04,7.64,1111122 
SCCF RECON,ioos:station:SCCF:53:1,2008-11-10T12:00:00Z,26.6493,-81.8810,1.998,7.42,1111122 
SCCF RECON,ioos:station:SCCF:53:1,2008-11-10T13:00:00Z,26.6493,-81.8810,1.96,7.52,1111122 
SCCF RECON,ioos:station:SCCF:53:1,2008-11-10T14:00:00Z,26.6493,-81.8810,1.97,9.03,1111122 
SCCF RECON,ioos:station:SCCF:53:1,2008-11-10T15:00:00Z,26.6493,-81.8810,2.027,9.71,1111122 
SCCF RECON,ioos:station:SCCF:53:1,2008-11-10T16:00:00Z,26.6493,-81.8810,2.07,9.91,1111122 
SCCF RECON,ioos:station:SCCF:53:1,2008-11-10T17:00:00Z,26.6493,-81.8810,2.115,9.82,1111122 
SCCF RECON,ioos:station:SCCF:53:1,2008-11-10T18:00:00Z,26.6493,-81.8810,2.16,9.84,1111122 
SCCF RECON,ioos:station:SCCF:53:1,2008-11-10T19:00:00Z,26.6493,-81.8810,2.18,9.77,1111122 
SCCF RECON,ioos:station:SCCF:53:1,2008-11-10T20:00:00Z,26.6493,-81.8810,2.17,8.9,1111122 
SCCF RECON,ioos:station:SCCF:53:1,2008-11-10T21:00:00Z,26.6493,-81.8810,2.139,8.84,1111122 
SCCF RECON,ioos:station:SCCF:53:1,2008-11-10T22:00:00Z,26.6493,-81.8810,2.094,9.22,1111122 
SCCF RECON,ioos:station:SCCF:53:1,2008-11-10T23:00:00Z,26.6493,-81.8810,2.06,8.92,1111122 
SCCF RECON,ioos:station:SCCF:53:1,2008-11-11T00:00:00Z,26.6493,-81.8810,2.06,9.75,1111122 
SCCF RECON,ioos:station:SCCF:53:1,2008-11-11T01:00:00Z,26.6493,-81.8810,2.11,9.55,1111122 
SCCF RECON,ioos:station:SCCF:53:1,2008-11-11T02:00:00Z,26.6493,-81.8810,2.178,9.72,1111122 
SCCF RECON,ioos:station:SCCF:53:1,2008-11-11T03:00:00Z,26.6493,-81.8810,2.232,9.59,1111122 
SCCF RECON,ioos:station:SCCF:53:1,2008-11-11T04:00:00Z,26.6493,-81.8810,2.291,9.56,1111122 
SCCF RECON,ioos:station:SCCF:53:1,2008-11-11T05:00:00Z,26.6493,-81.8810,2.349,9.39,1111122 
SCCF RECON,ioos:station:SCCF:53:1,2008-11-11T06:00:00Z,26.6493,-81.8810,2.37,9.11,1111122 
SCCF RECON,ioos:station:SCCF:53:1,2008-11-11T07:00:00Z,26.6493,-81.8810,2.339,8.48,1111122 
SCCF RECON,ioos:station:SCCF:53:1,2008-11-11T08:00:00Z,26.6493,-81.8810,2.261,8.79,1111122 
SCCF RECON,ioos:station:SCCF:53:1,2008-11-11T09:00:00Z,26.6493,-81.8810,2.21,8.72,1111122 
SCCF RECON,ioos:station:SCCF:53:1,2008-11-11T10:00:00Z,26.6493,-81.8810,2.15,8.69,1111122 
SCCF RECON,ioos:station:SCCF:53:1,2008-11-11T11:00:00Z,26.6493,-81.8810,2.09,8.65,1111122 
SCCF RECON,ioos:station:SCCF:53:1,2008-11-11T12:00:00Z,26.6493,-81.8810,2.04,8.75,1111122 
SCCF RECON,ioos:station:SCCF:53:1,2008-11-11T13:00:00Z,26.6493,-81.8810,2.0,8.7,1111122 
SCCF RECON,ioos:station:SCCF:53:1,2008-11-11T14:00:00Z,26.6493,-81.8810,1.98,8.59,1111122 
SCCF RECON,ioos:station:SCCF:53:1,2008-11-11T15:00:00Z,26.6493,-81.8810,2.02,9.28,1111122 
SCCF RECON,ioos:station:SCCF:53:1,2008-11-11T16:00:00Z,26.6493,-81.8810,2.064,9.47,1111122 
SCCF RECON,ioos:station:SCCF:53:1,2008-11-11T17:00:00Z,26.6493,-81.8810,2.103,9.41,1111122 
SCCF RECON,ioos:station:SCCF:53:1,2008-11-11T18:00:00Z,26.6493,-81.8810,2.155,9.16,1111122 
SCCF RECON,ioos:station:SCCF:53:1,2008-11-11T19:00:00Z,26.6493,-81.8810,2.193,9.08,1111122 
SCCF RECON,ioos:station:SCCF:53:1,2008-11-11T20:00:00Z,26.6493,-81.8810,2.223,8.99,1111122 